SWIFT

Last updated on Mon Sep 07 2026 00:02:52 GMT+0000 (Coordinated Universal Time)

1 28485U 04047A 26249.24847750 .00099656 00000+0 53278-3 0 9994 2 28485 20.5513 275.5414 0001365 85.5912 274.4691 15.78585044199647
UTC large
Height (km)
Speed (km/s)
/
Latitude / Longitude
Inclination (degrees)
Orbital Period (minutes)
Azimuth
Elevation
Range (km)
Doppler Factor

Next 0 passes for location: London (51.5072 / 0.1276)

No passes found over London.
SWIFT